| time (UTC) | temp F | wind direction | speed MPH | gust MPH | rain 1hr in | rain 24hr in | rain mn in | humidity % | barometer mb |
| 20260906022707 | 51 | 238 | 0.0 | 0.0 | 0.00 | 0.00 | 0.00 | 87 | 1026.6 |
| 20260906021707 | 51 | 205 | 0.0 | 4.0 | 0.00 | 0.00 | 0.00 | 87 | 1026.6 |
| 20260906020707 | 51 | 246 | 0.0 | 0.0 | 0.00 | 0.00 | 0.00 | 86 | 1026.5 |
| 20260906015707 | 52 | 246 | 0.0 | 0.0 | 0.00 | 0.00 | 0.00 | 87 | 1026.4 |
| 20260906014707 | 52 | 246 | 0.0 | 0.0 | 0.00 | 0.00 | 0.00 | 86 | 1026.2 |
| 20260906013707 | 52 | 246 | 0.0 | 0.0 | 0.00 | 0.00 | 0.00 | 86 | 1026.2 |
| 20260906012707 | 52 | 246 | 0.0 | 0.0 | 0.00 | 0.00 | 0.00 | 86 | 1026.1 |
| 20260906011707 | 53 | 246 | 0.0 | 0.0 | 0.00 | 0.00 | 0.00 | 85 | 1026.1 |
| 20260906010707 | 53 | 250 | 0.0 | 0.0 | 0.00 | 0.00 | 0.00 | 85 | 1026.0 |
| 20260906005707 | 53 | 234 | 0.0 | 0.0 | 0.00 | 0.00 | 0.00 | 85 | 1026.0 |
| 20260906004707 | 53 | 234 | 1.0 | 5.0 | 0.00 | 0.00 | 0.00 | 84 | 1026.0 |
| 20260906003707 | 54 | 223 | 1.0 | 4.0 | 0.00 | 0.00 | 0.00 | 85 | 1025.8 |
| 20260906002707 | 54 | 242 | 0.0 | 0.0 | 0.00 | 0.00 | 0.00 | 84 | 1026.0 |
| 20260906001707 | 54 | 233 | 0.0 | 0.0 | 0.00 | 0.00 | 0.00 | 84 | 1025.7 |
| 20260906000707 | 54 | 233 | 0.0 | 0.0 | 0.00 | 0.00 | 0.00 | 83 | 1025.8 |
| 20260905235707 | 54 | 227 | 2.0 | 7.0 | 0.00 | 0.00 | 0.00 | 83 | 1025.7 |
| 20260905234707 | 55 | 236 | 4.0 | 7.0 | 0.00 | 0.00 | 0.00 | 83 | 1025.5 |
| 20260905233707 | 54 | 261 | 3.0 | 9.0 | 0.00 | 0.00 | 0.00 | 84 | 1025.4 |
| 20260905232707 | 54 | 259 | 0.0 | 3.0 | 0.00 | 0.00 | 0.00 | 84 | 1025.3 |
| 20260905231707 | 54 | 290 | 0.0 | 0.0 | 0.00 | 0.00 | 0.00 | 83 | 1025.4 |
| 20260905230707 | 55 | 289 | 0.0 | 0.0 | 0.00 | 0.00 | 0.00 | 83 | 1025.2 |
| 20260905225707 | 55 | 281 | 2.0 | 6.0 | 0.00 | 0.00 | 0.00 | 82 | 1025.2 |
| 20260905224707 | 56 | 269 | 3.0 | 7.0 | 0.00 | 0.00 | 0.00 | 82 | 1025.0 |
| 20260905223708 | 56 | 271 | 4.0 | 8.0 | 0.00 | 0.00 | 0.00 | 82 | 1025.0 |
| 20260905222708 | 56 | 254 | 3.0 | 9.0 | 0.00 | 0.00 | 0.00 | 81 | 1024.9 |
| 20260905221708 | 56 | 249 | 4.0 | 9.0 | 0.00 | 0.00 | 0.00 | 80 | 1024.9 |
| 20260905220708 | 57 | 281 | 5.0 | 8.0 | 0.00 | 0.00 | 0.00 | 80 | 1024.9 |
| 20260905215708 | 57 | 263 | 5.0 | 10.0 | 0.00 | 0.00 | 0.00 | 80 | 1024.8 |
| 20260905214708 | 57 | 234 | 4.0 | 11.0 | 0.00 | 0.00 | 0.00 | 79 | 1024.8 |
| 20260905213708 | 57 | 274 | 4.0 | 8.0 | 0.00 | 0.00 | 0.00 | 79 | 1024.8 |
| 20260905212708 | 57 | 281 | 4.0 | 10.0 | 0.00 | 0.00 | 0.00 | 79 | 1024.7 |
| 20260905211708 | 57 | 216 | 3.0 | 5.0 | 0.00 | 0.00 | 0.00 | 79 | 1024.6 |
| 20260905210708 | 58 | 266 | 3.0 | 7.0 | 0.00 | 0.00 | 0.00 | 78 | 1024.4 |
| 20260905205708 | 58 | 218 | 4.0 | 6.0 | 0.00 | 0.00 | 0.00 | 78 | 1024.3 |
| 20260905204708 | 58 | 273 | 3.0 | 8.0 | 0.00 | 0.00 | 0.00 | 77 | 1024.2 |
| 20260905203708 | 59 | 242 | 4.0 | 6.0 | 0.00 | 0.00 | 0.00 | 76 | 1024.0 |
| 20260905202708 | 59 | 236 | 6.0 | 12.0 | 0.00 | 0.00 | 0.00 | 75 | 1024.0 |
| 20260905201708 | 60 | 253 | 6.0 | 11.0 | 0.00 | 0.00 | 0.00 | 74 | 1023.9 |
| 20260905200708 | 60 | 232 | 7.0 | 12.0 | 0.00 | 0.00 | 0.00 | 74 | 1023.9 |
| 20260905195708 | 60 | 260 | 6.0 | 13.0 | 0.00 | 0.00 | 0.00 | 74 | 1023.7 |
| 20260905194708 | 60 | 229 | 6.0 | 12.0 | 0.00 | 0.00 | 0.00 | 73 | 1023.7 |
| 20260905193708 | 60 | 279 | 5.0 | 12.0 | 0.00 | 0.00 | 0.00 | 73 | 1023.5 |
| 20260905192708 | 60 | 284 | 6.0 | 11.0 | 0.00 | 0.00 | 0.00 | 72 | 1023.5 |
| 20260905191708 | 61 | 260 | 6.0 | 13.0 | 0.00 | 0.00 | 0.00 | 72 | 1023.3 |
| 20260905190708 | 61 | 238 | 9.0 | 14.0 | 0.00 | 0.00 | 0.00 | 71 | 1023.1 |
| 20260905185708 | 61 | 284 | 7.0 | 13.0 | 0.00 | 0.00 | 0.00 | 71 | 1023.0 |
| 20260905184708 | 62 | 272 | 7.0 | 11.0 | 0.00 | 0.00 | 0.00 | 70 | 1023.1 |
| 20260905183708 | 62 | 246 | 7.0 | 12.0 | 0.00 | 0.00 | 0.00 | 70 | 1023.0 |
| 20260905182708 | 62 | 245 | 7.0 | 12.0 | 0.00 | 0.00 | 0.00 | 69 | 1022.9 |
| 20260905181708 | 62 | 249 | 8.0 | 14.0 | 0.00 | 0.00 | 0.00 | 69 | 1022.8 |
| 20260905180708 | 62 | 248 | 8.0 | 11.0 | 0.00 | 0.00 | 0.00 | 69 | 1022.7 |
| 20260905175708 | 63 | 259 | 7.0 | 19.0 | 0.00 | 0.00 | 0.00 | 69 | 1022.6 |
| 20260905174708 | 63 | 238 | 4.0 | 9.0 | 0.00 | 0.00 | 0.00 | 70 | 1022.5 |
| 20260905173708 | 63 | 290 | 6.0 | 11.0 | 0.00 | 0.00 | 0.00 | 69 | 1022.4 |
| 20260905172708 | 63 | 273 | 6.0 | 10.0 | 0.00 | 0.01 | 0.00 | 68 | 1022.3 |
| 20260905171708 | 64 | 254 | 9.0 | 14.0 | 0.00 | 0.01 | 0.00 | 66 | 1022.1 |
| 20260905170708 | 64 | 278 | 9.0 | 15.0 | 0.00 | 0.01 | 0.00 | 66 | 1022.1 |
| 20260905165708 | 64 | 216 | 7.0 | 12.0 | 0.00 | 0.01 | 0.00 | 68 | 1022.0 |
| 20260905164708 | 64 | 260 | 9.0 | 15.0 | 0.00 | 0.01 | 0.00 | 68 | 1021.8 |
| 20260905163708 | 64 | 292 | 10.0 | 16.0 | 0.00 | 0.01 | 0.00 | 68 | 1021.8 |
| 20260905162708 | 64 | 229 | 12.0 | 17.0 | 0.00 | 0.06 | 0.00 | 67 | 1021.5 |
| 20260905161708 | 64 | 234 | 11.0 | 22.0 | 0.00 | 0.06 | 0.00 | 67 | 1021.4 |
| 20260905160708 | 64 | 273 | 12.0 | 18.0 | 0.00 | 0.06 | 0.00 | 67 | 1021.1 |
| 20260905155708 | 64 | 232 | 10.0 | 17.0 | 0.00 | 0.06 | 0.00 | 68 | 1021.0 |
| 20260905154708 | 64 | 222 | 9.0 | 14.0 | 0.00 | 0.06 | 0.00 | 68 | 1020.9 |
| 20260905153708 | 64 | 225 | 8.0 | 14.0 | 0.00 | 0.06 | 0.00 | 69 | 1020.9 |
| 20260905152708 | 64 | 246 | 10.0 | 19.0 | 0.00 | 0.24 | 0.00 | 69 | 1020.9 |
| 20260905151708 | 63 | 259 | 8.0 | 14.0 | 0.00 | 0.24 | 0.00 | 73 | 1020.8 |
| 20260905150708 | 64 | 244 | 7.0 | 13.0 | 0.00 | 0.24 | 0.00 | 71 | 1020.7 |
| 20260905145709 | 64 | 295 | 8.0 | 16.0 | 0.00 | 0.24 | 0.00 | 68 | 1020.4 |
| 20260905144709 | 65 | 225 | 8.0 | 17.0 | 0.00 | 0.24 | 0.00 | 67 | 1020.4 |
| 20260905143709 | 66 | 273 | 14.0 | 23.0 | 0.00 | 0.24 | 0.00 | 64 | 1020.3 |
| 20260905142709 | 66 | 224 | 13.0 | 26.0 | 0.00 | 0.24 | 0.00 | 64 | 1020.2 |
| 20260905141709 | 65 | 256 | 14.0 | 23.0 | 0.00 | 0.24 | 0.00 | 65 | 1020.2 |
| 20260905140709 | 65 | 236 | 11.0 | 21.0 | 0.00 | 0.24 | 0.00 | 67 | 1020.1 |
| 20260905135709 | 65 | 249 | 9.0 | 15.0 | 0.00 | 0.24 | 0.00 | 65 | 1020.0 |
| 20260905134709 | 66 | 217 | 11.0 | 18.0 | 0.00 | 0.24 | 0.00 | 65 | 1019.9 |
| 20260905133709 | 66 | 251 | 12.0 | 15.0 | 0.00 | 0.24 | 0.00 | 63 | 1019.9 |
| 20260905132709 | 66 | 244 | 11.0 | 15.0 | 0.00 | 0.24 | 0.00 | 65 | 1019.6 |
| 20260905131709 | 65 | 235 | 10.0 | 13.0 | 0.00 | 0.24 | 0.00 | 64 | 1019.6 |
| 20260905130709 | 66 | 224 | 12.0 | 18.0 | 0.00 | 0.24 | 0.00 | 63 | 1019.5 |
| 20260905125709 | 65 | 271 | 12.0 | 23.0 | 0.00 | 0.24 | 0.00 | 63 | 1019.5 |
| 20260905124709 | 65 | 234 | 10.0 | 14.0 | 0.00 | 0.24 | 0.00 | 64 | 1019.4 |
| 20260905123709 | 65 | 244 | 12.0 | 21.0 | 0.00 | 0.24 | 0.00 | 62 | 1019.2 |
| 20260905122709 | 66 | 266 | 9.0 | 12.0 | 0.00 | 0.24 | 0.00 | 64 | 1019.2 |
| 20260905121709 | 66 | 238 | 9.0 | 16.0 | 0.00 | 0.24 | 0.00 | 65 | 1019.2 |
| 20260905120709 | 65 | 248 | 10.0 | 14.0 | 0.00 | 0.24 | 0.00 | 64 | 1019.2 |
| 20260905115709 | 65 | 276 | 12.0 | 20.0 | 0.00 | 0.24 | 0.00 | 64 | 1019.2 |
| 20260905114709 | 65 | 255 | 10.0 | 20.0 | 0.00 | 0.24 | 0.00 | 64 | 1019.1 |
| 20260905113709 | 64 | 238 | 9.0 | 17.0 | 0.00 | 0.24 | 0.00 | 66 | 1019.3 |
| 20260905112709 | 64 | 274 | 11.0 | 19.0 | 0.00 | 0.24 | 0.00 | 65 | 1019.1 |
| 20260905111709 | 64 | 217 | 10.0 | 16.0 | 0.00 | 0.24 | 0.00 | 66 | 1019.2 |
| 20260905110709 | 65 | 276 | 9.0 | 17.0 | 0.00 | 0.24 | 0.00 | 65 | 1019.1 |
| 20260905105709 | 65 | 242 | 8.0 | 13.0 | 0.00 | 0.24 | 0.00 | 66 | 1019.0 |
| 20260905104709 | 64 | 242 | 11.0 | 17.0 | 0.00 | 0.24 | 0.00 | 67 | 1019.0 |
| 20260905103709 | 64 | 226 | 11.0 | 17.0 | 0.00 | 0.24 | 0.00 | 65 | 1018.9 |
| 20260905102709 | 64 | 217 | 9.0 | 20.0 | 0.00 | 0.24 | 0.00 | 67 | 1019.0 |
| 20260905101709 | 64 | 236 | 8.0 | 12.0 | 0.00 | 0.24 | 0.00 | 67 | 1018.9 |
| 20260905100709 | 65 | 230 | 10.0 | 15.0 | 0.00 | 0.24 | 0.00 | 65 | 1018.8 |
| 20260905095709 | 65 | 233 | 11.0 | 17.0 | 0.00 | 0.24 | 0.00 | 66 | 1018.8 |
| 20260905094709 | 64 | 230 | 12.0 | 19.0 | 0.00 | 0.24 | 0.00 | 68 | 1018.8 |
| 20260905093709 | 64 | 242 | 11.0 | 21.0 | 0.00 | 0.24 | 0.00 | 68 | 1018.7 |
| 20260905092709 | 64 | 246 | 12.0 | 19.0 | 0.00 | 0.24 | 0.00 | 69 | 1018.7 |
| 20260905091709 | 63 | 233 | 12.0 | 20.0 | 0.00 | 0.24 | 0.00 | 71 | 1018.7 |
| 20260905090709 | 63 | 259 | 10.0 | 17.0 | 0.00 | 0.24 | 0.00 | 73 | 1018.7 |
| 20260905085709 | 63 | 259 | 11.0 | 17.0 | 0.00 | 0.24 | 0.00 | 73 | 1018.6 |
| 20260905084709 | 63 | 250 | 11.0 | 18.0 | 0.00 | 0.24 | 0.00 | 74 | 1018.6 |
| 20260905083709 | 62 | 257 | 10.0 | 15.0 | 0.00 | 0.24 | 0.00 | 77 | 1018.5 |
| 20260905082709 | 62 | 257 | 9.0 | 15.0 | 0.00 | 0.24 | 0.00 | 78 | 1018.4 |
| 20260905081709 | 62 | 227 | 10.0 | 14.0 | 0.00 | 0.24 | 0.00 | 79 | 1018.4 |
| 20260905080709 | 61 | 234 | 8.0 | 16.0 | 0.00 | 0.24 | 0.00 | 80 | 1018.3 |
| 20260905075709 | 61 | 272 | 10.0 | 19.0 | 0.00 | 0.24 | 0.00 | 81 | 1018.2 |
| 20260905074709 | 60 | 246 | 8.0 | 15.0 | 0.00 | 0.24 | 0.00 | 82 | 1017.9 |
| 20260905073709 | 60 | 259 | 7.0 | 9.0 | 0.00 | 0.24 | 0.00 | 84 | 1017.8 |
| 20260905072710 | 59 | 234 | 8.0 | 13.0 | 0.00 | 0.24 | 0.00 | 84 | 1017.7 |
| 20260905071710 | 59 | 248 | 7.0 | 14.0 | 0.00 | 0.24 | 0.00 | 85 | 1017.7 |
| 20260905070710 | 58 | 279 | 7.0 | 13.0 | 0.00 | 0.24 | 0.00 | 86 | 1017.6 |
| 20260905065710 | 58 | 240 | 7.0 | 14.0 | 0.00 | 0.24 | 0.00 | 86 | 1017.6 |
| 20260905064710 | 57 | 265 | 6.0 | 12.0 | 0.00 | 0.24 | 0.00 | 87 | 1017.4 |
| 20260905063710 | 57 | 273 | 4.0 | 8.0 | 0.00 | 0.24 | 0.00 | 87 | 1017.4 |
| 20260905062710 | 56 | 289 | 4.0 | 8.0 | 0.00 | 0.24 | 0.00 | 87 | 1017.3 |
| 20260905061710 | 56 | 238 | 4.0 | 8.0 | 0.00 | 0.24 | 0.00 | 87 | 1017.3 |
| 20260905060710 | 56 | 232 | 2.0 | 7.0 | 0.00 | 0.24 | 0.00 | 87 | 1017.3 |
| 20260905055710 | 56 | 319 | 0.0 | 0.0 | 0.00 | 0.24 | 0.00 | 87 | 1017.3 |
| 20260905054710 | 56 | 328 | 0.0 | 2.0 | 0.00 | 0.24 | 0.00 | 87 | 1017.3 |
| 20260905053710 | 56 | 242 | 1.0 | 3.0 | 0.00 | 0.24 | 0.00 | 87 | 1017.1 |
| 20260905052710 | 56 | 271 | 2.0 | 6.0 | 0.00 | 0.24 | 0.00 | 87 | 1017.0 |
| 20260905051710 | 55 | 213 | 3.0 | 7.0 | 0.00 | 0.24 | 0.00 | 86 | 1016.9 |
| 20260905050710 | 55 | 218 | 1.0 | 3.0 | 0.00 | 0.24 | 0.00 | 86 | 1016.9 |
| 20260905045710 | 55 | 281 | 2.0 | 5.0 | 0.00 | 0.24 | 0.00 | 86 | 1016.9 |
| 20260905044710 | 55 | 223 | 1.0 | 7.0 | 0.00 | 0.24 | 0.00 | 86 | 1016.6 |
| 20260905043710 | 55 | 278 | 1.0 | 7.0 | 0.00 | 0.24 | 0.00 | 86 | 1016.5 |
| 20260905042710 | 55 | 286 | 0.0 | 1.0 | 0.00 | 0.24 | 0.00 | 86 | 1016.4 |
| 20260905041710 | 55 | 261 | 0.0 | 1.0 | 0.00 | 0.24 | 0.00 | 86 | 1016.4 |
| 20260905040710 | 55 | 263 | 1.0 | 4.0 | 0.00 | 0.24 | 0.00 | 86 | 1016.3 |
| 20260905035710 | 55 | 223 | 1.0 | 4.0 | 0.00 | 0.24 | 0.00 | 86 | 1016.4 |
| 20260905034710 | 55 | 234 | 0.0 | 3.0 | 0.00 | 0.24 | 0.00 | 86 | 1016.4 |
| 20260905033710 | 56 | 263 | 0.0 | 2.0 | 0.00 | 0.24 | 0.00 | 86 | 1016.2 |
| 20260905032710 | 56 | 263 | 0.0 | 3.0 | 0.00 | 0.24 | 0.00 | 86 | 1016.1 |
| 20260905031710 | 56 | 183 | 0.0 | 2.0 | 0.00 | 0.24 | 0.00 | 87 | 1015.9 |
| 20260905030710 | 56 | 292 | 0.0 | 3.0 | 0.00 | 0.24 | 0.00 | 87 | 1015.9 |
| 20260905025710 | 56 | 217 | 0.0 | 4.0 | 0.00 | 0.24 | 0.00 | 87 | 1015.8 |
| 20260905024710 | 57 | 232 | 1.0 | 3.0 | 0.00 | 0.24 | 0.00 | 87 | 1015.7 |
| 20260905023710 | 57 | 229 | 1.0 | 4.0 | 0.00 | 0.24 | 0.00 | 87 | 1015.7 |